Wind_Speed
40 39 39 39 39 39 39 39 39 40 41 42 42 43 43 44 44 44 45 45 45 46 45 45 45 44 44 44 44 43 42 42 41 41 40 39 37 36 36 36 36 36 36
39 39 39 39 40 40 40 40 40 41 42 43 44 45 45 46 46 47 47 47 48 48 48 48 48 48 48 48 47 47 46 46 45 44 43 42 40 39 39 38 38 38 38
39 39 40 40 40 41 41 41 41 42 42 43 45 46 47 47 48 49 49 50 50 51 51 51 51 51 51 51 50 50 49 49 48 48 46 45 43 42 42 41 41 41 41
39 40 40 40 41 41 41 42 42 43 43 44 45 46 46 47 48 50 51 52 53 53 54 54 54 54 54 53 53 52 52 52 51 50 50 49 48 46 45 44 44 44 44
39 40 40 40 41 41 41 42 42 43 44 44 45 46 47 48 49 50 51 52 54 55 56 57 57 57 57 56 56 55 55 54 54 53 53 52 51 50 48 48 47 47 47
38 39 39 40 40 40 41 41 42 43 44 44 45 46 47 48 50 51 52 53 55 56 57 58 59 59 59 59 59 59 58 57 57 56 56 55 54 52 51 51 50 50 50
36 36 37 38 38 39 39 40 40 42 43 44 45 46 48 50 51 53 55 56 57 58 59 60 61 61 62 62 62 61 61 60 59 59 57 57 56 54 53 54 53 53 53
33 34 35 35 36 36 37 38 40 41 42 43 45 47 48 51 53 55 57 59 60 62 63 64 64 64 64 64 63 63 62 61 61 60 59 58 57 57 56 55 56 56 56
31 32 33 33 34 35 36 37 38 40 41 43 45 47 49 52 54 56 59 61 63 65 66 67 67 67 66 65 65 64 63 62 61 61 60 59 58 57 57 57 58 59 59
29 30 30 31 32 33 34 35 37 39 41 43 45 47 50 52 54 57 59 61 63 64 65 66 66 66 66 65 63 63 62 61 60 60 60 59 58 58 58 59 59 60 60
27 28 29 30 31 32 32 34 35 38 40 42 44 46 49 51 53 55 57 58 60 61 62 63 62 61 60 60 59 58 58 58 58 58 58 58 57 58 58 58 59 60 59
27 27 28 29 30 30 32 33 35 36 38 40 42 44 46 48 49 51 52 53 54 55 56 57 56 56 55 54 54 52 52 52 53 54 54 55 55 57 57 58 58 58 58
25 26 27 28 29 29 30 31 32 33 34 35 36 38 40 42 43 44 45 46 47 47 47 47 47 47 47 47 46 46 45 46 46 48 49 50 51 53 54 54 54 55 56
24 24 25 26 26 26 26 27 28 28 30 31 32 33 34 35 36 36 37 36 37 37 37 36 37 37 38 38 38 38 38 39 40 42 44 45 47 49 50 51 53 54 56
22 22 22 22 23 23 23 23 24 24 25 26 26 27 28 29 29 29 28 27 28 27 27 28 28 29 29 29 30 31 33 34 35 38 40 41 44 46 47 49 51 53 54
19 19 19 19 20 20 20 20 20 20 21 22 22 23 24 25 25 23 22 20 20 19 19 19 20 22 23 24 25 27 29 30 32 34 36 38 40 42 44 47 48 50 51
17 17 17 17 17 17 17 17 17 18 18 18 19 20 21 21 21 19 17 16 14 13 13 14 15 16 18 19 20 21 23 26 28 30 33 35 38 40 43 44 46 47 49
15 16 16 16 16 15 15 16 15 16 16 17 17 18 18 18 18 17 15 14 12 11 10 10 10 11 13 14 16 17 20 22 25 27 30 33 35 37 39 42 45 47 50
15 15 15 15 15 14 14 15 15 15 15 15 16 16 16 16 16 15 14 12 11 11 10 9 9 10 11 12 15 17 19 21 23 25 28 31 34 37 40 42 45 48 51
14 14 14 14 14 14 14 14 14 14 13 14 14 14 15 15 14 14 14 13 11 11 10 9 9 10 11 12 13 15 18 20 23 26 29 32 35 38 41 44 47 49 51
13 13 13 13 13 13 13 13 13 13 12 13 13 13 14 14 13 13 13 12 12 11 10 10 11 12 13 14 16 18 21 23 26 29 32 35 37 40 42 45 48 50 51
13 13 13 12 12 13 13 13 13 13 12 13 13 13 13 13 13 13 13 13 12 12 12 12 13 14 15 17 19 22 24 27 29 32 35 37 40 42 44 46 48 50 51
13 13 13 13 13 13 12 12 12 12 12 12 12 13 13 13 13 13 13 13 14 14 14 15 16 17 19 21 23 25 27 30 32 35 37 40 42 44 46 48 49 50 50
13 13 13 13 13 12 12 11 11 11 11 12 12 13 13 14 14 14 14 15 15 15 16 17 19 20 22 24 26 28 31 33 35 37 40 42 43 45 47 48 49 49 48
13 13 13 13 13 12 12 12 11 11 12 12 13 14 14 14 15 15 16 16 17 18 19 20 22 23 25 27 29 31 33 36 38 40 41 43 44 46 47 48 48 47 45
14 13 13 13 13 12 12 13 12 12 13 13 14 15 15 16 16 17 18 19 20 21 22 23 25 26 28 30 32 34 36 38 40 42 43 44 45 46 47 47 46 44 42
Wind_Direction
244 245 244 245 247 249 252 254 257 260 262 264 265 266 267 268 268 269 269 270 270 270 271 271 271 271 271 271 272 272 274 274 275 276 278 279 281 283 284 285 286 287 287
247 248 248 249 250 252 254 256 259 261 262 264 264 265 266 266 267 268 269 271 271 270 270 270 269 269 269 270 270 271 272 273 274 275 276 277 279 280 281 282 283 284 285
248 250 251 252 253 255 257 259 261 262 264 265 266 266 267 267 268 268 269 269 269 269 269 269 269 269 269 269 269 270 271 272 273 274 275 276 277 278 279 280 281 282 283
249 252 254 256 257 259 261 262 264 265 266 266 267 267 268 268 268 268 268 269 269 269 269 269 268 267 268 268 268 268 269 270 271 273 274 276 276 277 277 278 280 281 282
250 253 255 258 259 261 263 264 265 266 267 267 268 269 269 269 269 268 268 269 269 268 268 267 267 266 266 266 266 266 267 268 270 271 272 273 275 276 277 277 278 280 281
251 254 256 258 260 262 263 265 266 267 268 269 270 270 270 270 270 270 269 269 268 268 267 267 266 265 265 264 264 264 265 266 267 269 271 272 273 275 276 276 277 278 280
251 254 256 258 260 262 264 266 268 269 271 272 273 273 274 274 273 273 272 271 270 268 267 266 265 265 264 264 264 264 264 265 266 267 269 271 272 273 274 275 277 277 279
251 253 255 258 260 263 266 268 270 272 274 275 276 276 276 276 276 275 274 273 272 270 268 266 265 264 264 263 263 264 264 264 265 266 267 269 271 272 273 274 276 277 278
249 252 255 258 261 265 268 271 273 275 276 277 278 279 280 280 280 279 278 276 274 272 270 268 266 264 263 263 263 263 263 263 264 265 266 267 269 270 271 273 275 277 278
248 252 256 260 264 267 270 273 275 278 279 281 282 283 283 283 283 282 281 279 277 274 272 269 267 265 264 262 262 261 261 262 262 263 265 266 267 269 272 273 275 277 279
250 254 258 262 266 269 272 275 278 280 282 284 284 285 285 285 285 284 283 281 279 275 273 270 268 267 265 264 262 262 261 261 261 262 263 265 267 268 271 273 275 276 278
253 258 262 266 269 271 275 278 281 283 285 286 287 288 290 289 288 287 286 283 280 277 274 271 269 267 266 264 263 261 260 260 260 261 262 264 265 267 270 272 273 276 278
256 261 265 268 271 274 277 280 284 287 289 290 292 294 296 296 294 292 289 286 282 278 275 272 269 267 265 265 262 259 258 258 259 260 261 263 264 267 269 272 274 276 277
259 263 266 270 273 275 278 282 287 291 294 296 298 301 305 305 303 300 296 291 286 281 276 272 269 266 264 262 260 258 257 257 258 260 262 263 266 268 271 273 275 277 279
259 264 268 271 273 275 279 284 290 294 299 303 305 309 312 314 311 308 305 299 293 285 277 271 268 265 263 260 258 256 257 257 259 261 263 265 268 270 272 274 276 279 281
262 266 269 271 273 276 280 286 292 298 306 310 312 316 318 320 320 317 313 309 302 293 285 276 271 268 263 260 259 258 258 260 261 264 265 267 269 272 275 277 279 281 284
264 268 271 272 274 277 281 288 294 300 307 314 319 322 325 326 325 324 321 319 313 302 288 285 278 271 267 265 262 260 261 264 265 266 268 270 272 275 278 281 283 287 289
265 270 273 273 274 276 281 288 295 302 308 315 321 326 328 332 333 334 330 328 328 323 313 300 285 276 269 266 265 267 268 269 269 271 274 277 280 283 285 288 290 291 292
268 271 274 274 273 276 282 289 296 302 309 316 322 325 328 332 336 337 339 335 328 327 320 309 298 290 282 276 274 275 276 278 280 283 284 287 289 290 292 293 295 295 296
267 271 273 274 274 277 282 289 295 300 306 315 322 326 329 329 331 336 339 341 337 332 327 317 314 309 302 296 293 292 291 291 291 292 293 294 295 297 298 299 299 299 300
268 271 273 274 276 279 282 286 292 296 303 312 317 323 327 329 331 334 337 338 338 335 331 323 319 314 310 307 303 300 300 299 299 298 299 300 301 302 302 302 302 302 302
267 269 272 275 279 281 284 286 290 294 300 307 312 318 323 326 329 332 333 333 334 332 328 322 318 314 311 309 307 306 305 304 304 304 304 304 304 304 304 304 304 305 305
266 269 274 277 280 283 285 286 289 293 299 305 310 315 319 324 327 328 328 328 328 327 325 322 319 316 312 310 308 308 308 307 306 306 306 306 306 306 306 307 307 307 307
267 272 275 278 280 281 282 284 288 292 298 305 310 314 316 319 322 324 324 323 323 322 321 319 317 315 313 312 310 310 309 309 309 309 309 309 309 308 308 309 309 308 307
268 270 274 276 277 279 279 281 285 291 298 304 308 312 315 318 320 320 319 319 319 318 318 317 316 315 314 313 312 311 311 311 312 312 312 312 311 311 311 311 311 309 307
268 269 272 275 275 275 278 279 283 289 296 300 304 309 312 315 316 316 316 316 317 317 317 316 316 315 315 314 314 313 313 313 314 314 314 314 314 314 314 313 312 309 307
Height
5778 5782 5786 5789 5791 5793 5795 5797 5798 5798 5798 5799 5799 5799 5799 5798 5798 5798 5797 5797 5796 5796 5795 5795 5795 5794 5794 5793 5792 5792 5791 5790 5789 5788 5788 5787 5786 5785 5783 5781 5779 5778 5776
5771 5774 5778 5781 5783 5785 5787 5789 5790 5790 5790 5790 5790 5790 5790 5790 5789 5788 5788 5787 5787 5786 5785 5785 5785 5784 5783 5783 5782 5782 5781 5781 5780 5779 5778 5778 5777 5776 5774 5772 5771 5769 5767
5763 5767 5770 5772 5775 5777 5779 5780 5781 5781 5781 5781 5781 5781 5781 5781 5780 5779 5778 5777 5776 5775 5774 5774 5773 5773 5772 5772 5771 5771 5770 5770 5769 5768 5768 5768 5768 5766 5765 5763 5761 5760 5758
5756 5759 5761 5764 5766 5768 5769 5770 5771 5771 5772 5771 5771 5771 5771 5771 5770 5769 5767 5766 5764 5764 5763 5762 5761 5761 5760 5760 5760 5759 5759 5758 5758 5757 5756 5757 5756 5755 5755 5753 5751 5749 5747
5749 5751 5753 5755 5757 5759 5760 5761 5761 5761 5761 5761 5761 5760 5760 5759 5758 5757 5756 5755 5753 5752 5751 5750 5749 5748 5748 5748 5747 5747 5747 5746 5746 5746 5745 5744 5744 5743 5742 5742 5741 5738 5736
5741 5743 5745 5747 5748 5750 5750 5751 5751 5751 5750 5750 5750 5749 5748 5747 5746 5745 5743 5742 5740 5739 5737 5736 5735 5734 5734 5734 5734 5734 5734 5734 5733 5733 5733 5733 5732 5732 5731 5729 5728 5727 5725
5734 5736 5737 5738 5739 5740 5741 5741 5741 5740 5740 5739 5738 5737 5736 5735 5733 5731 5730 5728 5726 5725 5723 5721 5720 5719 5719 5719 5719 5719 5720 5720 5720 5721 5721 5721 5720 5720 5719 5717 5716 5714 5712
5726 5727 5729 5730 5731 5731 5731 5731 5731 5730 5729 5728 5727 5725 5723 5722 5719 5717 5714 5712 5710 5708 5706 5704 5703 5703 5703 5703 5704 5704 5706 5706 5707 5707 5708 5708 5707 5707 5706 5705 5703 5701 5700
5718 5719 5720 5721 5722 5722 5722 5722 5721 5720 5719 5717 5715 5713 5710 5708 5705 5701 5698 5695 5692 5690 5687 5686 5685 5685 5686 5687 5688 5689 5690 5692 5693 5694 5694 5695 5695 5694 5693 5692 5690 5688 5686
5710 5712 5713 5713 5714 5714 5713 5713 5712 5710 5708 5706 5704 5701 5697 5694 5690 5686 5681 5677 5673 5670 5668 5666 5665 5666 5667 5669 5670 5672 5674 5676 5678 5680 5681 5682 5682 5681 5680 5678 5677 5675 5672
5703 5704 5705 5705 5706 5706 5705 5704 5703 5701 5699 5696 5693 5689 5685 5680 5675 5670 5664 5659 5655 5651 5648 5647 5646 5647 5649 5651 5654 5656 5659 5662 5664 5666 5667 5668 5669 5668 5667 5665 5663 5662 5659
5696 5697 5698 5698 5698 5698 5697 5696 5694 5692 5689 5686 5682 5677 5672 5666 5660 5654 5648 5642 5637 5634 5631 5629 5629 5631 5633 5635 5638 5641 5644 5647 5650 5652 5653 5655 5655 5655 5653 5652 5650 5648 5645
5690 5690 5691 5691 5690 5690 5689 5687 5685 5683 5679 5675 5671 5666 5660 5654 5647 5640 5633 5627 5622 5619 5617 5615 5616 5617 5619 5621 5624 5627 5630 5633 5636 5639 5640 5642 5642 5641 5640 5639 5637 5635 5632
5684 5684 5684 5683 5683 5682 5681 5679 5677 5674 5670 5666 5661 5656 5650 5643 5635 5628 5621 5616 5611 5608 5606 5605 5605 5607 5609 5611 5613 5616 5619 5622 5625 5627 5629 5629 5630 5629 5629 5627 5625 5622 5619
5678 5678 5677 5677 5676 5675 5674 5672 5669 5666 5662 5657 5653 5647 5641 5634 5627 5620 5614 5608 5604 5600 5598 5598 5598 5599 5601 5603 5605 5607 5610 5613 5615 5617 5618 5618 5619 5618 5616 5615 5612 5609 5605
5672 5672 5671 5670 5669 5668 5667 5665 5662 5659 5655 5651 5646 5640 5634 5628 5621 5615 5609 5604 5599 5596 5594 5593 5593 5594 5595 5597 5599 5601 5603 5605 5607 5608 5609 5609 5608 5607 5605 5603 5600 5596 5592
5666 5666 5665 5664 5663 5662 5661 5659 5656 5653 5649 5645 5640 5635 5629 5624 5618 5612 5606 5601 5597 5594 5592 5591 5590 5591 5592 5593 5594 5596 5597 5599 5600 5600 5600 5600 5599 5597 5595 5591 5588 5584 5579
5661 5660 5659 5659 5658 5656 5655 5653 5650 5647 5644 5640 5635 5630 5626 5621 5615 5610 5605 5601 5597 5594 5591 5590 5589 5589 5589 5590 5591 5592 5593 5593 5593 5593 5593 5591 5589 5587 5584 5580 5576 5571 5566
5656 5655 5654 5653 5652 5651 5650 5648 5645 5643 5639 5636 5631 5627 5622 5618 5613 5609 5604 5600 5597 5594 5591 5590 5589 5589 5588 5588 5588 5588 5588 5588 5587 5586 5585 5583 5580 5577 5573 5569 5563 5558 5552
5651 5650 5649 5648 5647 5646 5645 5643 5641 5638 5635 5632 5628 5624 5620 5616 5612 5608 5603 5600 5596 5593 5591 5590 5589 5588 5587 5586 5585 5585 5584 5583 5581 5579 5577 5574 5570 5566 5561 5556 5550 5544 5538
5646 5646 5645 5644 5643 5641 5640 5638 5636 5634 5631 5628 5625 5621 5618 5614 5610 5606 5603 5599 5596 5593 5591 5589 5588 5586 5585 5584 5582 5581 5579 5577 5575 5572 5568 5564 5560 5555 5550 5544 5537 5530 5523
5642 5641 5640 5639 5638 5637 5635 5633 5631 5629 5627 5624 5621 5618 5615 5612 5608 5605 5602 5598 5596 5593 5590 5588 5586 5584 5582 5581 5578 5576 5574 5571 5567 5564 5559 5555 5550 5544 5538 5531 5524 5517 5509
5637 5636 5636 5635 5633 5632 5631 5629 5627 5625 5623 5621 5618 5615 5612 5609 5606 5603 5600 5597 5594 5591 5589 5586 5584 5582 5579 5576 5574 5571 5567 5564 5560 5555 5550 5545 5539 5532 5526 5518 5511 5503 5495
5632 5632 5631 5630 5629 5628 5626 5625 5623 5621 5619 5617 5615 5612 5609 5606 5603 5600 5597 5595 5592 5589 5586 5583 5581 5578 5575 5572 5568 5565 5561 5556 5551 5546 5540 5534 5527 5521 5513 5506 5498 5490 5483
5628 5627 5626 5626 5625 5624 5622 5621 5619 5618 5616 5614 5611 5609 5606 5603 5600 5597 5594 5591 5589 5586 5583 5580 5576 5573 5570 5566 5562 5558 5553 5548 5542 5536 5530 5523 5516 5508 5501 5493 5485 5478 5470
5623 5622 5622 5621 5620 5619 5618 5617 5615 5614 5612 5610 5608 5605 5602 5600 5597 5594 5591 5588 5585 5581 5578 5575 5571 5567 5564 5559 5555 5550 5544 5538 5532 5526 5519 5512 5504 5496 5489 5481 5473 5466 5459